Regional Weather Roundup
Issued by NWS

Home | Current Version | Previous Version | Text Only | Print | Product List | Glossary Off
Versions: 1 2 3 4 5 6 7 8 9 10 11 12 13 14 15 16 17 18 19 20 21 22 23 24 25 26 27 28 29 30 31 32 33 34 35 36 37 38 39 40 41 42 43 44 45 46 47 48 49 50

000
ASUS43 KOAX 270310
RWRNE

WEATHER ROUNDUP FOR NEBRASKA
NATIONAL WEATHER SERVICE OMAHA NE
1000 PM CDT SUN MAR 26 2017

NOTES: SATELLITE DATA IS BEING USED TO AUGMENT CLOUD COVER ABOVE
       12000 FEET.
       "FAIR" INDICATES FEW OR NO CLOUDS BELOW 12,000 FEET WITH NO
       SIGNIFICANT WEATHER AND/OR OBSTRUCTIONS TO VISIBILITY.

  * THESE STATIONS DO NOT REPORT WEATHER SUCH AS RAIN...SNOW OR FOG.

NEZ001>004-019>022-054>056-270400-
NEBRASKA PANHANDLE

CITY           SKY/WX    TMP DP  RH WIND       PRES   REMARKS
SCOTTSBLUFF    CLEAR     39  32  76 CALM      29.95R
ALLIANCE       CLOUDY    43  38  82 NW6       29.95R
CHADRON        CLEAR     39  36  89 NE5       29.95R
KIMBALL        CLEAR     36  35  98 W3        29.97R
SIDNEY         CLEAR     41  35  79 NW10      29.96R
$$

NEZ057>060-069>072-079>082-270400-
SOUTHWEST NEBRASKA

CITY           SKY/WX    TMP DP  RH WIND       PRES   REMARKS
NORTH PLATTE   CLOUDY    45  39  79 SE6       29.92R
IMPERIAL       MOCLDY    45  41  86 SW7       29.92R
LEXINGTON      CLOUDY    46  42  84 S3        29.93S
MCCOOK         CLOUDY    46  42  86 SW6       29.93R
OGALLALA       CLOUDY    50  38  63 CALM      29.91S
$$

NEZ005>010-023>029-035>040-094-270400-
NORTH CENTRAL NEBRASKA

CITY           SKY/WX    TMP DP  RH WIND       PRES   REMARKS
VALENTINE      CLOUDY    43  35  73 NE3       29.96R
AINSWORTH      CLOUDY    42  41  97 SE7       29.95S
BROKEN BOW     MOCLDY    47  43  86 SE6       29.94R
O`NEILL        CLOUDY    45  41  88 CALM      29.97S
ORD            CLOUDY    44  40  85 E5        29.95R
THEDFORD       PTCLDY    47  41  80 E8        29.94R
$$

NEZ041-046>049-061>064-073>077-083>087-270400-
SOUTH CENTRAL NEBRASKA

CITY           SKY/WX    TMP DP  RH WIND       PRES   REMARKS
GRAND ISLAND   CLOUDY    46  45  96 E5        29.94F
AURORA         CLOUDY    46  44  95 CALM      29.94F
HASTINGS       LGT RAIN  46  44  93 E5        29.95R FOG
HEBRON         LGT RAIN  46  44  95 NE6       29.93S
HOLDREGE       CLOUDY    45  42  91 CALM      29.93R
KEARNEY *      CLOUDY    46  41  81 CALM      29.94S
YORK           CLOUDY    45  45 100 CALM      29.95S
$$

NEZ011>018-030>034-042>045-270400-
NORTHEAST NEBRASKA

CITY           SKY/WX    TMP DP  RH WIND       PRES   REMARKS
NORFOLK        CLOUDY    44  40  85 NE5       29.96S
ALBION         CLOUDY    46  42  88 E3        29.96S
BLAIR          CLOUDY    46  43  87 CALM      29.96S
FREMONT        CLOUDY    46  44  93 CALM      29.97S
TEKAMAH        CLOUDY    46  42  86 NW5       29.97S
WAYNE          CLOUDY    43  42  95 CALM      29.97F
$$

NEZ050>053-065>068-078-088>093-270400-
SOUTHEAST NEBRASKA

CITY           SKY/WX    TMP DP  RH WIND       PRES   REMARKS
LINCOLN        CLOUDY    47  43  86 NE5       29.96F
OMAHA EPPLEY   CLOUDY    48  41  76 CALM      29.96F
BEATRICE       CLOUDY    46  44  90 NE7       29.93F
FALLS CITY     CLOUDY    47  44  90 NE6       29.93F
NEBRASKA CITY  CLOUDY    46  43  90 CALM      29.95F
PLATTSMOUTH    CLOUDY    47  41  81 CALM      29.96S
$$

NEZ044-045-051>053-067-270400-
OMAHA AREA

CITY           SKY/WX    TMP DP  RH WIND       PRES   REMARKS
OMAHA EPPLEY   CLOUDY    48  41  76 CALM      29.96F
BLAIR          CLOUDY    46  43  87 CALM      29.96S
FREMONT        CLOUDY    46  44  93 CALM      29.97S
MILLARD        CLOUDY    50  44  79 CALM      29.96S
OFFUTT AFB     CLOUDY    47  42  83 CALM      29.95F
PLATTSMOUTH    CLOUDY    47  41  81 CALM      29.96S
WAHOO          CLOUDY    45  43  95 N3        29.96F FOG
$$



USA.gov is the U.S. government's official web portal to all federal, state and local government web resources and services.